Location: Unspecified
(0.0000°N, 0.0000°E)
Time: 19:43:31
(UTC+00:00)

Envisat - Pass Details

Date: 09 August 2021
Orbit: 764 x 766 km, 98.2° (Epoch: 20 September)

Event Time Altitude Azimuth Distance (km) Brightness Sun altitude
Rises 04:57:35 0° 9° (N) 3,213 6.6 -16.3°
Reaches altitude 10° 04:59:53 10° 7° (N) 2,290 5.8 -15.8°
Maximum altitude 05:04:55 76° 282° (WNW) 789 2.9 -14.6°
Drops below altitude 10° 05:09:59 10° 197° (SSW) 2,299 5.2 -13.4°
Sets 05:12:17 0° 195° (SSW) 3,227 5.9 -12.8°
